FW1525 Weather Reports


time (UTC)temp
C
wind
direction
speed
KPH
gust
KPH
rain 1hr
cm
rain 24hr
cm
rain mn
cm
humidity
%
barometer
mb
20200229074706 18 8 1.6 3.2 0.00 0.00 0.00 68 1017.4
20200229074205 18 6 1.6 3.2 0.00 0.00 0.00 68 1017.8
20200229073704 18 56 1.6 1.6 0.00 0.00 0.00 68 1017.8
20200229073203 18 98 1.6 3.2 0.00 0.00 0.00 68 1017.4
20200229072702 18 101 0.0 3.2 0.00 0.00 0.00 69 1017.4
20200229072201 18 101 0.0 3.2 0.00 0.00 0.00 69 1017.8
20200229071700 18 101 1.6 6.4 0.00 0.00 0.00 69 1017.8
20200229071159 18 101 1.6 6.4 0.00 0.00 0.00 69 1017.8
20200229070659 18 107 1.6 6.4 0.00 0.00 0.00 70 1017.8
20200229070157 18 96 1.6 4.8 0.00 0.00 0.00 69 1018.1
20200229065656 18 114 1.6 3.2 0.00 0.00 0.00 69 1017.8
20200229065155 18 119 1.6 3.2 0.00 0.00 0.00 69 1018.1
20200229064654 18 167 0.0 1.6 0.00 0.00 0.00 70 1018.1
20200229064152 18 169 1.6 1.6 0.00 0.00 0.00 70 1018.4
20200229063651 18 224 0.0 1.6 0.00 0.00 0.00 71 1018.4
20200229063150 18 236 0.0 1.6 0.00 0.00 0.00 71 1018.4
20200229062649 18 236 0.0 1.6 0.00 0.00 0.00 72 1018.8
20200229062148 18 238 0.0 1.6 0.00 0.00 0.00 72 1018.8
20200229061647 18 239 0.0 1.6 0.00 0.00 0.00 72 1018.8
20200229061146 18 238 0.0 1.6 0.00 0.00 0.00 72 1018.8
20200229060645 18 238 1.6 1.6 0.00 0.00 0.00 72 1018.8
20200229060145 18 239 1.6 1.6 0.00 0.00 0.00 72 1018.4
20200229055644 18 276 0.0 0.0 0.00 0.00 0.00 72 1018.4
20200229055143 18 316 0.0 1.6 0.00 0.00 0.00 71 1018.7
20200229054642 18 316 0.0 1.6 0.00 0.00 0.00 71 1018.4
20200229054141 18 316 0.0 1.6 0.00 0.00 0.00 71 1018.7
20200229053640 18 320 1.6 1.6 0.00 0.00 0.00 71 1018.7
20200229053139 18 262 1.6 1.6 0.00 0.00 0.00 71 1018.7
20200229052637 18 257 0.0 0.0 0.00 0.00 0.00 71 1018.7
20200229052136 18 257 0.0 0.0 0.00 0.00 0.00 71 1018.4
20200229051636 18 257 0.0 3.2 0.00 0.00 0.00 71 1018.4
20200229051134 18 257 0.0 3.2 0.00 0.00 0.00 71 1018.4
20200229050633 18 257 0.0 6.4 0.00 0.00 0.00 70 1018.4
20200229050132 18 261 1.6 6.4 0.00 0.00 0.00 70 1018.7
20200229045631 19 271 1.6 6.4 0.00 0.00 0.00 69 1018.7
20200229045130 19 265 1.6 6.4 0.00 0.00 0.00 68 1018.4
20200229044630 20 278 1.6 1.6 0.00 0.00 0.00 67 1018.4
20200229044128 20 287 1.6 1.6 0.00 0.00 0.00 67 1017.7
20200229043627 20 297 0.0 1.6 0.00 0.00 0.00 66 1017.7
20200229043126 20 306 1.6 1.6 0.00 0.00 0.00 66 1017.7
20200229042626 20 262 0.0 0.0 0.00 0.00 0.00 66 1017.7
20200229042124 20 259 0.0 0.0 0.00 0.00 0.00 66 1017.4
20200229041623 20 259 0.0 0.0 0.00 0.00 0.00 65 1017.4
20200229041123 20 259 0.0 0.0 0.00 0.00 0.00 65 1017.4
20200229040621 20 259 0.0 0.0 0.00 0.00 0.00 65 1017.7
20200229040119 20 259 0.0 0.0 0.00 0.00 0.00 64 1017.7
20200229035619 20 258 0.0 1.6 0.00 0.00 0.00 64 1017.7
20200229035117 20 248 0.0 1.6 0.00 0.00 0.00 63 1017.4
20200229034616 20 129 0.0 6.4 0.00 0.00 0.00 63 1017.0
20200229034115 21 130 1.6 6.4 0.00 0.00 0.00 63 1017.0
20200229033614 21 115 0.0 6.4 0.00 0.00 0.00 63 1017.0
20200229033114 21 105 3.2 8.0 0.00 0.00 0.00 63 1017.0
20200229032612 21 97 1.6 8.0 0.00 0.00 0.00 62 1017.0
20200229032111 21 112 3.2 8.0 0.00 0.00 0.00 62 1017.0
20200229031611 21 115 3.2 8.0 0.00 0.00 0.00 61 1017.1
20200229031110 21 121 3.2 8.0 0.00 0.00 0.00 60 1017.1
20200229030609 21 127 0.0 1.6 0.00 0.00 0.00 61 1017.4
20200229030109 21 134 0.0 1.6 0.00 0.00 0.00 61 1017.4
20200229025607 21 215 1.6 1.6 0.00 0.00 0.00 61 1017.1
20200229025106 21 228 1.6 1.6 0.00 0.00 0.00 61 1017.4
20200229024605 21 238 0.0 1.6 0.00 0.00 0.00 61 1017.4
20200229024104 21 231 1.6 1.6 0.00 0.00 0.00 61 1017.4
20200229023603 21 212 1.6 1.6 0.00 0.00 0.00 62 1017.1
20200229023102 21 240 0.0 3.2 0.00 0.00 0.00 62 1017.4
20200229022601 21 212 1.6 3.2 0.00 0.00 0.00 62 1017.4
20200229022100 21 215 1.6 3.2 0.00 0.00 0.00 62 1017.4
20200229021559 21 243 1.6 3.2 0.00 0.00 0.00 61 1017.4
20200229021057 21 225 1.6 3.2 0.00 0.00 0.00 61 1017.4
20200229020556 22 205 1.6 6.4 0.00 0.00 0.00 60 1017.1
20200229020056 22 250 1.6 8.0 0.00 0.00 0.00 59 1017.1
20200229015555 22 232 1.6 8.0 0.00 0.00 0.00 58 1017.1
20200229015054 22 212 3.2 8.0 0.00 0.00 0.00 58 1016.7
20200229014553 22 221 3.2 8.0 0.00 0.00 0.00 57 1017.1
20200229014052 22 223 3.2 6.4 0.00 0.00 0.00 55 1017.4
20200229013551 22 226 1.6 3.2 0.00 0.00 0.00 55 1017.4
20200229013050 22 202 1.6 1.6 0.00 0.00 0.00 56 1017.1
20200229012549 22 239 1.6 6.4 0.00 0.00 0.00 55 1017.1
20200229012048 22 237 1.6 8.0 0.00 0.00 0.00 56 1017.1
20200229011547 23 259 1.6 9.7 0.00 0.00 0.00 55 1017.4
20200229011046 23 260 1.6 11.3 0.00 0.00 0.00 55 1017.4
20200229010545 23 263 3.2 11.3 0.00 0.00 0.00 54 1017.4
20200229010048 23 255 4.8 11.3 0.00 0.00 0.00 54 1017.4
20200229005542 23 239 4.8 11.3 0.00 0.00 0.00 53 1017.4
20200229005041 24 236 3.2 11.3 0.00 0.00 0.00 51 1017.0
20200229004540 25 246 3.2 11.3 0.00 0.00 0.00 49 1017.0
20200229004039 25 249 3.2 11.3 0.00 0.00 0.00 47 1017.0
20200229003538 25 247 4.8 12.9 0.00 0.00 0.00 46 1017.0
20200229003036 25 259 4.8 12.9 0.00 0.00 0.00 46 1017.0
20200229002536 26 270 4.8 19.3 0.00 0.00 0.00 44 1017.0
20200229002037 26 269 6.4 19.3 0.00 0.00 0.00 43 1016.7
20200229001534 26 247 8.0 19.3 0.00 0.00 0.00 42 1016.7
20200229001032 26 250 8.0 19.3 0.00 0.00 0.00 40 1017.0
20200229000531 26 254 6.4 17.7 0.00 0.00 0.00 39 1016.7
20200229000030 27 251 8.0 19.3 0.00 0.00 0.00 37 1016.7
20200228235529 27 275 6.4 19.3 0.00 0.00 0.00 36 1016.7
20200228235028 27 275 8.0 20.9 0.00 0.00 0.00 34 1017.0
20200228234527 27 280 8.0 22.5 0.00 0.00 0.00 36 1017.0
20200228234026 27 288 9.7 25.7 0.00 0.00 0.00 37 1017.1
20200228233525 27 277 8.0 29.0 0.00 0.00 0.00 37 1017.1
20200228233023 27 264 11.3 29.0 0.00 0.00 0.00 41 1017.1
20200228232522 27 263 12.9 29.0 0.00 0.00 0.00 43 1017.1
20200228232022 28 247 17.7 29.0 0.00 0.00 0.00 45 1016.7
20200228231520 28 268 9.7 22.5 0.00 0.00 0.00 45 1016.7
20200228231019 28 269 11.3 27.4 0.00 0.00 0.00 44 1016.7
20200228230519 28 271 9.7 29.0 0.00 0.00 0.00 42 1016.7
20200228230017 28 270 8.0 29.0 0.00 0.00 0.00 41 1016.7
20200228225516 28 269 11.3 29.0 0.00 0.00 0.00 40 1016.7
20200228225015 28 253 8.0 20.9 0.00 0.00 0.00 38 1016.4
20200228224514 28 263 6.4 19.3 0.00 0.00 0.00 38 1016.7
20200228224013 29 266 9.7 22.5 0.00 0.00 0.00 38 1016.7
20200228223512 28 268 8.0 22.5 0.00 0.00 0.00 34 1016.4
20200228223011 28 257 9.7 22.5 0.00 0.00 0.00 36 1016.4
20200228222510 28 249 4.8 22.5 0.00 0.00 0.00 39 1016.4
20200228222009 28 261 11.3 22.5 0.00 0.00 0.00 39 1016.4
20200228221508 28 265 11.3 20.9 0.00 0.00 0.00 39 1016.4
20200228221007 28 257 8.0 20.9 0.00 0.00 0.00 38 1016.4
20200228220506 28 272 4.8 20.9 0.00 0.00 0.00 38 1016.1
20200228220004 28 274 8.0 20.9 0.00 0.00 0.00 38 1016.1
20200228215502 29 249 6.4 17.7 0.00 0.00 0.00 37 1016.1
20200228215001 28 265 6.4 17.7 0.00 0.00 0.00 37 1016.1
20200228214500 29 262 6.4 17.7 0.00 0.00 0.00 37 1016.1
20200228213959 28 271 6.4 16.1 0.00 0.00 0.00 33 1016.1
20200228213458 28 247 8.0 16.1 0.00 0.00 0.00 35 1016.1
20200228212957 28 276 6.4 19.3 0.00 0.00 0.00 32 1016.1
20200228212456 28 245 6.4 19.3 0.00 0.00 0.00 33 1016.1
20200228211955 28 278 6.4 19.3 0.00 0.00 0.00 34 1016.1
20200228211454 28 233 8.0 19.3 0.00 0.00 0.00 34 1016.4
20200228210953 28 256 8.0 19.3 0.00 0.00 0.00 36 1016.4
20200228210452 28 233 6.4 17.7 0.00 0.00 0.00 36 1016.4
20200228205951 28 264 4.8 17.7 0.00 0.00 0.00 37 1016.4
20200228205450 28 240 8.0 19.3 0.00 0.00 0.00 36 1016.4
20200228204949 28 249 6.4 19.3 0.00 0.00 0.00 38 1016.7
20200228204448 28 229 8.0 19.3 0.00 0.00 0.00 39 1016.7
20200228203947 28 237 8.0 19.3 0.00 0.00 0.00 39 1016.7
20200228203445 28 207 6.4 17.7 0.00 0.00 0.00 41 1016.4
20200228202944 27 231 4.8 17.7 0.00 0.00 0.00 41 1016.7
20200228202443 27 238 8.0 17.7 0.00 0.00 0.00 42 1016.7
20200228201942 27 181 8.0 17.7 0.00 0.00 0.00 43 1016.7
20200228201442 27 221 8.0 17.7 0.00 0.00 0.00 41 1017.1
20200228200941 27 211 6.4 16.1 0.00 0.00 0.00 41 1017.1
20200228200439 27 174 8.0 16.1 0.00 0.00 0.00 41 1017.1
20200228195938 27 222 4.8 11.3 0.00 0.00 0.00 43 1017.1
20200228195437 27 267 6.4 11.3 0.00 0.00 0.00 43 1017.4
20200228194936 27 242 3.2 11.3 0.00 0.00 0.00 41 1017.4
20200228194435 27 233 3.2 11.3 0.00 0.00 0.00 41 1017.7
20200228193934 27 248 4.8 11.3 0.00 0.00 0.00 41 1017.7
20200228193433 27 166 6.4 11.3 0.00 0.00 0.00 42 1017.8
20200228192932 27 209 4.8 9.7 0.00 0.00 0.00 41 1017.7
20200228192431 27 191 4.8 9.7 0.00 0.00 0.00 39 1017.7
20200228191930 27 184 3.2 9.7 0.00 0.00 0.00 40 1018.1
20200228191429 27 223 4.8 9.7 0.00 0.00 0.00 38 1018.1
20200228190929 27 225 3.2 8.0 0.00 0.00 0.00 35 1018.4
20200228190428 27 242 3.2 8.0 0.00 0.00 0.00 36 1018.4
20200228185926 27 198 1.6 8.0 0.00 0.00 0.00 34 1018.4
20200228185425 27 187 3.2 8.0 0.00 0.00 0.00 35 1018.4
20200228184924 27 152 1.6 8.0 0.00 0.00 0.00 35 1018.4
20200228184423 27 238 1.6 8.0 0.00 0.00 0.00 34 1018.8
20200228183922 27 217 1.6 3.2 0.00 0.00 0.00 36 1018.8
20200228183421 26 126 1.6 6.4 0.00 0.00 0.00 38 1018.8
20200228182920 26 112 1.6 6.4 0.00 0.00 0.00 38 1018.8
20200228182419 25 78 1.6 6.4 0.00 0.00 0.00 41 1019.1
20200228181918 25 356 1.6 6.4 0.00 0.00 0.00 40 1019.1
20200228181417 25 111 1.6 3.2 0.00 0.00 0.00 42 1019.1
20200228180916 25 164 1.6 3.2 0.00 0.00 0.00 43 1019.1
20200228180415 23 162 0.0 3.2 0.00 0.00 0.00 45 1019.1
20200228175914 23 267 1.6 3.2 0.00 0.00 0.00 46 1019.1
20200228175413 23 296 1.6 3.2 0.00 0.00 0.00 47 1019.1
20200228174913 22 269 1.6 3.2 0.00 0.00 0.00 48 1019.1
20200228174412 22 314 1.6 3.2 0.00 0.00 0.00 48 1019.1
20200228173911 22 266 1.6 3.2 0.00 0.00 0.00 48 1019.1
20200228173410 22 145 1.6 3.2 0.00 0.00 0.00 50 1019.1
20200228172909 22 207 1.6 3.2 0.00 0.00 0.00 51 1019.1
20200228172408 21 120 1.6 3.2 0.00 0.00 0.00 51 1019.1
20200228171907 21 109 0.0 3.2 0.00 0.00 0.00 54 1019.1
20200228171406 20 109 0.0 3.2 0.00 0.00 0.00 55 1019.1
20200228170906 20 108 0.0 3.2 0.00 0.00 0.00 55 1019.1
20200228085146 15 171 3.2 8.0 0.00 0.00 0.00 62 1017.7
20200228084646 15 180 3.2 8.0 0.00 0.00 0.00 62 1017.7
20200228084144 16 182 3.2 6.4 0.00 0.00 0.00 63 1017.7
20200228083642 16 235 0.0 6.4 0.00 0.00 0.00 64 1018.1
20200228083141 16 222 1.6 6.4 0.00 0.00 0.00 66 1018.1
20200228082640 16 227 1.6 6.4 0.00 0.00 0.00 67 1018.1
20200228082139 16 227 1.6 6.4 0.00 0.00 0.00 67 1018.1
20200228081638 16 227 1.6 6.4 0.00 0.00 0.00 66 1017.7
20200228081137 16 212 1.6 6.4 0.00 0.00 0.00 65 1018.1
20200228080637 16 198 3.2 6.4 0.00 0.00 0.00 66 1017.7
20200228080136 16 160 1.6 6.4 0.00 0.00 0.00 65 1017.7
20200228075634 16 158 3.2 6.4 0.00 0.00 0.00 64 1017.7